| time (UTC) | temp C | wind direction | speed KPH | gust KPH | rain 1hr cm | rain 24hr cm | rain mn cm | humidity % | barometer mb |
| 20260507051716 | 13 | 155 | 11.3 | 16.1 | 0.00 | 0.00 | 0.00 | 84 | 1020.5 |
| 20260507050246 | 13 | 132 | 8.0 | 12.9 | 0.00 | 0.00 | 0.00 | 83 | 1020.7 |
| 20260507044801 | 13 | 151 | 8.0 | 14.5 | 0.00 | 0.00 | 0.00 | 83 | 1020.6 |
| 20260507044707 | 13 | 151 | 8.0 | 14.5 | 0.00 | 0.00 | 0.00 | 83 | 1020.6 |
| 20260507043334 | 13 | 151 | 8.0 | 14.5 | 0.00 | 0.00 | 0.00 | 83 | 1020.6 |
| 20260507042202 | 13 | 148 | 9.7 | 14.5 | 0.00 | 0.00 | 0.00 | 83 | 1020.5 |
| 20260507042021 | 13 | 148 | 9.7 | 14.5 | 0.00 | 0.00 | 0.00 | 83 | 1020.5 |
| 20260507040922 | 13 | 153 | 8.0 | 14.5 | 0.00 | 0.00 | 0.00 | 82 | 1020.4 |
| 20260507040510 | 13 | 159 | 8.0 | 14.5 | 0.00 | 0.00 | 0.00 | 82 | 1020.4 |
| 20260507035717 | 13 | 161 | 9.7 | 14.5 | 0.00 | 0.00 | 0.00 | 81 | 1020.4 |
| 20260507035006 | 13 | 163 | 8.0 | 14.5 | 0.00 | 0.00 | 0.00 | 81 | 1020.3 |
| 20260507034402 | 13 | 152 | 9.7 | 14.5 | 0.00 | 0.00 | 0.00 | 80 | 1020.2 |
| 20260507033610 | 14 | 155 | 9.7 | 12.9 | 0.00 | 0.00 | 0.00 | 80 | 1020.2 |
| 20260507032939 | 14 | 161 | 6.4 | 11.3 | 0.00 | 0.00 | 0.00 | 78 | 1020.2 |
| 20260507032316 | 14 | 157 | 8.0 | 11.3 | 0.00 | 0.00 | 0.00 | 78 | 1020.1 |
| 20260507031522 | 15 | 150 | 6.4 | 9.7 | 0.00 | 0.00 | 0.00 | 78 | 1020.2 |
| 20260507030810 | 15 | 151 | 4.8 | 9.7 | 0.00 | 0.00 | 0.00 | 77 | 1020.1 |
| 20260507030107 | 15 | 171 | 4.8 | 9.7 | 0.00 | 0.00 | 0.00 | 77 | 1020.0 |
| 20260507025510 | 15 | 156 | 4.8 | 9.7 | 0.00 | 0.00 | 0.00 | 78 | 1020.0 |
| 20260507024611 | 15 | 156 | 6.4 | 9.7 | 0.00 | 0.00 | 0.00 | 78 | 1020.0 |
| 20260507024156 | 15 | 150 | 6.4 | 9.7 | 0.00 | 0.00 | 0.00 | 78 | 1020.0 |
| 20260507022830 | 15 | 158 | 6.4 | 12.9 | 0.00 | 0.00 | 0.00 | 78 | 1019.8 |
| 20260507021702 | 15 | 139 | 8.0 | 16.1 | 0.00 | 0.00 | 0.00 | 78 | 1019.9 |
| 20260507021350 | 15 | 144 | 6.4 | 16.1 | 0.00 | 0.00 | 0.00 | 78 | 1019.8 |
| 20260507015930 | 15 | 151 | 8.0 | 12.9 | 0.00 | 0.00 | 0.00 | 78 | 1019.8 |
| 20260507015122 | 15 | 145 | 8.0 | 12.9 | 0.00 | 0.00 | 0.00 | 78 | 1019.8 |
| 20260507014641 | 15 | 153 | 8.0 | 12.9 | 0.00 | 0.00 | 0.00 | 78 | 1019.8 |
| 20260507013301 | 15 | 146 | 8.0 | 14.5 | 0.00 | 0.00 | 0.00 | 79 | 1019.8 |
| 20260507011930 | 14 | 149 | 9.7 | 14.5 | 0.00 | 0.00 | 0.00 | 79 | 1019.8 |
| 20260507010641 | 15 | 147 | 8.0 | 16.1 | 0.00 | 0.00 | 0.00 | 79 | 1019.8 |
| 20260507005101 | 14 | 142 | 9.7 | 16.1 | 0.00 | 0.00 | 0.00 | 79 | 1020.0 |
| 20260507004537 | 14 | 144 | 11.3 | 16.1 | 0.00 | 0.00 | 0.00 | 79 | 1020.0 |
| 20260507003546 | 14 | 147 | 9.7 | 17.7 | 0.00 | 0.00 | 0.00 | 79 | 1019.9 |
| 20260507002027 | 14 | 142 | 9.7 | 17.7 | 0.00 | 0.00 | 0.00 | 79 | 1020.0 |
| 20260507000626 | 15 | 153 | 6.4 | 16.1 | 0.00 | 0.00 | 0.00 | 78 | 1020.0 |
| 20260506235143 | 14 | 156 | 9.7 | 12.9 | 0.00 | 0.00 | 0.00 | 78 | 1020.0 |
| 20260506233942 | 14 | 154 | 8.0 | 14.5 | 0.00 | 0.00 | 0.00 | 78 | 1020.1 |
| 20260506233826 | 14 | 154 | 8.0 | 14.5 | 0.00 | 0.00 | 0.00 | 78 | 1020.1 |
| 20260506232627 | 15 | 164 | 6.4 | 14.5 | 0.00 | 0.00 | 0.00 | 77 | 1020.1 |
| 20260506232256 | 14 | 171 | 9.7 | 16.1 | 0.00 | 0.00 | 0.00 | 77 | 1020.1 |
| 20260506231006 | 14 | 158 | 8.0 | 14.5 | 0.00 | 0.00 | 0.00 | 78 | 1020.2 |
| 20260506225626 | 14 | 160 | 9.7 | 16.1 | 0.00 | 0.00 | 0.00 | 78 | 1020.2 |
| 20260506224206 | 14 | 149 | 9.7 | 12.9 | 0.00 | 0.00 | 0.00 | 78 | 1020.1 |
| 20260506223322 | 14 | 158 | 8.0 | 16.1 | 0.00 | 0.00 | 0.00 | 77 | 1020.1 |
| 20260506222736 | 14 | 157 | 9.7 | 16.1 | 0.00 | 0.00 | 0.00 | 77 | 1020.2 |
| 20260506222002 | 15 | 179 | 8.0 | 16.1 | 0.00 | 0.00 | 0.00 | 77 | 1020.3 |
| 20260506221250 | 14 | 149 | 9.7 | 16.1 | 0.00 | 0.00 | 0.00 | 77 | 1020.3 |
| 20260506220602 | 14 | 152 | 9.7 | 17.7 | 0.00 | 0.00 | 0.00 | 77 | 1020.3 |
| 20260506215650 | 14 | 161 | 12.9 | 17.7 | 0.00 | 0.00 | 0.00 | 76 | 1020.4 |
| 20260506215307 | 14 | 168 | 11.3 | 17.7 | 0.00 | 0.00 | 0.00 | 76 | 1020.3 |
| 20260506214101 | 14 | 147 | 14.5 | 22.5 | 0.00 | 0.00 | 0.00 | 77 | 1020.2 |
| 20260506212626 | 14 | 147 | 12.9 | 20.9 | 0.00 | 0.00 | 0.00 | 76 | 1020.4 |
| 20260506212357 | 14 | 159 | 9.7 | 16.1 | 0.00 | 0.00 | 0.00 | 76 | 1020.4 |
| 20260506211147 | 15 | 157 | 8.0 | 17.7 | 0.00 | 0.00 | 0.00 | 75 | 1020.5 |
| 20260506211056 | 15 | 157 | 8.0 | 17.7 | 0.00 | 0.00 | 0.00 | 75 | 1020.5 |
| 20260506205520 | 15 | 151 | 9.7 | 17.7 | 0.00 | 0.00 | 0.00 | 76 | 1020.3 |
| 20260506204607 | 15 | 166 | 9.7 | 17.7 | 0.00 | 0.00 | 0.00 | 75 | 1020.2 |
| 20260506204216 | 15 | 150 | 9.7 | 17.7 | 0.00 | 0.00 | 0.00 | 76 | 1020.1 |
| 20260506202656 | 14 | 143 | 9.7 | 20.9 | 0.00 | 0.00 | 0.00 | 76 | 1020.2 |
| 20260506201942 | 14 | 166 | 9.7 | 16.1 | 0.00 | 0.00 | 0.00 | 76 | 1020.1 |
| 20260506201341 | 14 | 155 | 9.7 | 22.5 | 0.00 | 0.00 | 0.00 | 76 | 1020.2 |
| 20260506200637 | 14 | 150 | 9.7 | 22.5 | 0.00 | 0.00 | 0.00 | 78 | 1020.3 |
| 20260506195906 | 15 | 156 | 8.0 | 14.5 | 0.00 | 0.00 | 0.00 | 77 | 1020.1 |
| 20260506195402 | 14 | 162 | 9.7 | 14.5 | 0.00 | 0.00 | 0.00 | 78 | 1020.2 |
| 20260506194426 | 13 | 141 | 9.7 | 19.3 | 0.00 | 0.00 | 0.00 | 79 | 1020.1 |
| 20260506194131 | 13 | 141 | 9.7 | 19.3 | 0.00 | 0.00 | 0.00 | 79 | 1020.1 |
| 20260506193021 | 13 | 138 | 12.9 | 19.3 | 0.00 | 0.00 | 0.00 | 80 | 1020.1 |
| 20260506192717 | 14 | 136 | 9.7 | 19.3 | 0.00 | 0.00 | 0.00 | 79 | 1020.1 |
| 20260506191546 | 13 | 135 | 9.7 | 16.1 | 0.00 | 0.00 | 0.00 | 81 | 1020.1 |
| 20260506191317 | 13 | 146 | 9.7 | 16.1 | 0.00 | 0.00 | 0.00 | 81 | 1020.0 |
| 20260506190136 | 13 | 141 | 11.3 | 17.7 | 0.00 | 0.00 | 0.00 | 82 | 1020.0 |
| 20260506190021 | 13 | 141 | 11.3 | 17.7 | 0.00 | 0.00 | 0.00 | 82 | 1020.0 |
| 20260506184757 | 13 | 128 | 11.3 | 20.9 | 0.00 | 0.00 | 0.00 | 82 | 1020.0 |
| 20260506184536 | 13 | 128 | 11.3 | 20.9 | 0.00 | 0.00 | 0.00 | 82 | 1020.0 |
| 20260506183509 | 13 | 139 | 11.3 | 17.7 | 0.00 | 0.00 | 0.00 | 83 | 1020.1 |
| 20260506183001 | 13 | 140 | 9.7 | 16.1 | 0.00 | 0.00 | 0.00 | 83 | 1020.0 |
| 20260506182131 | 13 | 157 | 8.0 | 16.1 | 0.00 | 0.00 | 0.00 | 84 | 1020.1 |
| 20260506181706 | 13 | 145 | 9.7 | 16.1 | 0.00 | 0.00 | 0.00 | 84 | 1020.0 |
| 20260506180121 | 13 | 160 | 8.0 | 14.5 | 0.00 | 0.00 | 0.00 | 85 | 1020.0 |
| 20260506174626 | 12 | 142 | 11.3 | 17.7 | 0.00 | 0.00 | 0.00 | 88 | 1019.5 |
| 20260506174127 | 13 | 128 | 11.3 | 16.1 | 0.00 | 0.00 | 0.00 | 88 | 1019.7 |
| 20260506173041 | 13 | 156 | 6.4 | 16.1 | 0.00 | 0.00 | 0.00 | 88 | 1019.7 |
| 20260506172822 | 12 | 142 | 9.7 | 16.1 | 0.00 | 0.00 | 0.00 | 90 | 1019.7 |
| 20260506171710 | 12 | 122 | 11.3 | 17.7 | 0.00 | 0.00 | 0.00 | 91 | 1019.8 |
| 20260506170212 | 12 | 147 | 9.7 | 16.1 | 0.00 | 0.00 | 0.00 | 89 | 1019.9 |
| 20260506165011 | 12 | 138 | 9.7 | 19.3 | 0.00 | 0.00 | 0.00 | 89 | 1019.6 |
| 20260506164820 | 12 | 138 | 9.7 | 19.3 | 0.00 | 0.00 | 0.00 | 89 | 1019.6 |
| 20260506163441 | 12 | 160 | 6.4 | 12.9 | 0.00 | 0.00 | 0.00 | 89 | 1019.7 |
| 20260506162407 | 12 | 142 | 8.0 | 16.1 | 0.00 | 0.00 | 0.00 | 90 | 1019.5 |
| 20260506162026 | 12 | 142 | 8.0 | 16.1 | 0.00 | 0.00 | 0.00 | 90 | 1019.5 |
| 20260506160430 | 12 | 137 | 11.3 | 19.3 | 0.00 | 0.00 | 0.00 | 92 | 1019.0 |
| 20260506155802 | 12 | 129 | 11.3 | 17.7 | 0.00 | 0.00 | 0.00 | 93 | 1019.1 |
| 20260506154941 | 12 | 132 | 11.3 | 16.1 | 0.00 | 0.00 | 0.00 | 93 | 1019.1 |
| 20260506153646 | 12 | 139 | 8.0 | 14.5 | 0.00 | 0.00 | 0.00 | 93 | 1019.3 |
| 20260506153311 | 12 | 150 | 9.7 | 14.5 | 0.00 | 0.00 | 0.00 | 93 | 1019.4 |
| 20260506152056 | 12 | 145 | 8.0 | 12.9 | 0.00 | 0.00 | 0.00 | 94 | 1019.5 |
| 20260506151842 | 12 | 152 | 6.4 | 12.9 | 0.00 | 0.00 | 0.00 | 93 | 1019.5 |
| 20260506150642 | 12 | 164 | 6.4 | 12.9 | 0.00 | 0.00 | 0.00 | 94 | 1019.4 |
| 20260506150601 | 12 | 164 | 6.4 | 12.9 | 0.00 | 0.00 | 0.00 | 94 | 1019.4 |
| 20260506145322 | 11 | 148 | 9.7 | 16.1 | 0.00 | 0.00 | 0.00 | 95 | 1019.0 |
| 20260506145246 | 11 | 148 | 9.7 | 16.1 | 0.00 | 0.00 | 0.00 | 95 | 1019.0 |
| 20260506144117 | 11 | 133 | 9.7 | 14.5 | 0.00 | 0.00 | 0.00 | 94 | 1019.2 |
| 20260506143806 | 12 | 134 | 8.0 | 14.5 | 0.00 | 0.00 | 0.00 | 93 | 1019.2 |
| 20260506142702 | 12 | 142 | 4.8 | 9.7 | 0.00 | 0.00 | 0.00 | 92 | 1019.3 |
| 20260506142410 | 12 | 149 | 6.4 | 9.7 | 0.00 | 0.00 | 0.00 | 92 | 1019.2 |
| 20260506141006 | 11 | 154 | 8.0 | 12.9 | 0.00 | 0.00 | 0.00 | 92 | 1019.0 |
| 20260506140027 | 12 | 142 | 8.0 | 12.9 | 0.00 | 0.00 | 0.00 | 91 | 1018.9 |
| 20260506135543 | 12 | 151 | 8.0 | 12.9 | 0.00 | 0.00 | 0.00 | 90 | 1019.0 |
| 20260506134827 | 12 | 174 | 3.2 | 9.7 | 0.00 | 0.00 | 0.00 | 88 | 1019.1 |
| 20260506134241 | 12 | 184 | 4.8 | 9.7 | 0.00 | 0.00 | 0.00 | 88 | 1019.1 |
| 20260506133327 | 12 | 170 | 4.8 | 12.9 | 0.00 | 0.00 | 0.00 | 87 | 1018.8 |
| 20260506132926 | 12 | 176 | 3.2 | 12.9 | 0.00 | 0.00 | 0.00 | 88 | 1018.9 |
| 20260506132007 | 12 | 159 | 4.8 | 11.3 | 0.00 | 0.00 | 0.00 | 88 | 1018.7 |
| 20260506131450 | 12 | 152 | 6.4 | 11.3 | 0.00 | 0.00 | 0.00 | 88 | 1018.8 |
| 20260506130802 | 12 | 162 | 6.4 | 12.9 | 0.00 | 0.00 | 0.00 | 87 | 1018.8 |
| 20260506130206 | 12 | 163 | 4.8 | 14.5 | 0.00 | 0.00 | 0.00 | 89 | 1018.6 |
| 20260506125531 | 12 | 127 | 9.7 | 14.5 | 0.00 | 0.00 | 0.00 | 89 | 1018.2 |
| 20260506124721 | 12 | 160 | 8.0 | 14.5 | 0.00 | 0.00 | 0.00 | 88 | 1018.5 |
| 20260506124111 | 12 | 168 | 8.0 | 14.5 | 0.00 | 0.00 | 0.00 | 87 | 1018.5 |
| 20260506123356 | 12 | 158 | 8.0 | 14.5 | 0.00 | 0.00 | 0.00 | 87 | 1018.4 |
| 20260506122722 | 12 | 158 | 6.4 | 14.5 | 0.00 | 0.00 | 0.00 | 87 | 1018.2 |
| 20260506121806 | 12 | 150 | 6.4 | 12.9 | 0.00 | 0.00 | 0.00 | 87 | 1018.2 |
| 20260506121451 | 12 | 145 | 8.0 | 12.9 | 0.00 | 0.00 | 0.00 | 87 | 1018.1 |
| 20260506120516 | 12 | 141 | 6.4 | 11.3 | 0.00 | 0.00 | 0.00 | 87 | 1018.2 |
| 20260506120107 | 12 | 145 | 8.0 | 11.3 | 0.00 | 0.00 | 0.00 | 86 | 1018.1 |
| 20260506115140 | 12 | 150 | 6.4 | 11.3 | 0.00 | 0.00 | 0.00 | 86 | 1018.1 |
| 20260506113630 | 12 | 126 | 6.4 | 11.3 | 0.00 | 0.00 | 0.00 | 87 | 1017.9 |
| 20260506113547 | 12 | 126 | 6.4 | 11.3 | 0.00 | 0.00 | 0.00 | 87 | 1017.9 |
| 20260506112326 | 12 | 127 | 8.0 | 11.3 | 0.00 | 0.00 | 0.00 | 87 | 1017.8 |
| 20260506110846 | 12 | 145 | 6.4 | 12.9 | 0.00 | 0.00 | 0.00 | 88 | 1017.8 |
| 20260506110711 | 12 | 145 | 6.4 | 12.9 | 0.00 | 0.00 | 0.00 | 88 | 1017.8 |
| 20260506105526 | 12 | 140 | 8.0 | 12.9 | 0.00 | 0.00 | 0.00 | 87 | 1017.7 |
| 20260506105242 | 12 | 145 | 6.4 | 9.7 | 0.00 | 0.00 | 0.00 | 87 | 1017.7 |
| 20260506104041 | 12 | 154 | 6.4 | 9.7 | 0.00 | 0.00 | 0.00 | 86 | 1017.6 |
| 20260506103951 | 12 | 153 | 4.8 | 9.7 | 0.00 | 0.00 | 0.00 | 87 | 1017.7 |
| 20260506102610 | 12 | 148 | 6.4 | 11.3 | 0.00 | 0.00 | 0.00 | 86 | 1017.6 |
| 20260506101010 | 12 | 156 | 8.0 | 12.9 | 0.00 | 0.00 | 0.00 | 86 | 1017.6 |
| 20260506095851 | 12 | 155 | 6.4 | 11.3 | 0.00 | 0.00 | 0.00 | 86 | 1017.5 |
| 20260506095456 | 12 | 151 | 6.4 | 11.3 | 0.00 | 0.00 | 0.00 | 85 | 1017.4 |
| 20260506094156 | 13 | 133 | 4.8 | 11.3 | 0.00 | 0.00 | 0.00 | 85 | 1017.2 |
| 20260506093222 | 12 | 165 | 6.4 | 11.3 | 0.00 | 0.00 | 0.00 | 86 | 1017.1 |
| 20260506092645 | 12 | 146 | 4.8 | 9.7 | 0.00 | 0.00 | 0.00 | 86 | 1017.2 |
| 20260506091907 | 12 | 147 | 6.4 | 11.3 | 0.00 | 0.00 | 0.00 | 87 | 1017.1 |
| 20260506091353 | 12 | 148 | 6.4 | 12.9 | 0.00 | 0.00 | 0.00 | 87 | 1017.0 |
| 20260506090611 | 12 | 145 | 8.0 | 12.9 | 0.00 | 0.00 | 0.00 | 86 | 1017.0 |
| 20260506090046 | 12 | 135 | 8.0 | 12.9 | 0.00 | 0.00 | 0.00 | 86 | 1017.0 |
| 20260506084610 | 13 | 124 | 8.0 | 11.3 | 0.00 | 0.00 | 0.00 | 86 | 1016.9 |
| 20260506083121 | 13 | 130 | 9.7 | 12.9 | 0.00 | 0.00 | 0.00 | 86 | 1016.7 |
| 20260506082702 | 13 | 128 | 9.7 | 12.9 | 0.00 | 0.00 | 0.00 | 85 | 1016.7 |
| 20260506081717 | 13 | 134 | 8.0 | 12.9 | 0.00 | 0.00 | 0.00 | 85 | 1016.6 |
| 20260506081227 | 13 | 142 | 8.0 | 14.5 | 0.00 | 0.00 | 0.00 | 85 | 1016.6 |
| 20260506080310 | 13 | 137 | 9.7 | 14.5 | 0.00 | 0.00 | 0.00 | 85 | 1016.5 |
| 20260506073441 | 13 | 143 | 8.0 | 12.9 | 0.00 | 0.00 | 0.00 | 84 | 1016.3 |
| 20260506073311 | 13 | 143 | 8.0 | 12.9 | 0.00 | 0.00 | 0.00 | 84 | 1016.3 |
| 20260506071910 | 13 | 150 | 8.0 | 12.9 | 0.00 | 0.00 | 0.00 | 83 | 1016.2 |
| 20260506070642 | 14 | 160 | 8.0 | 11.3 | 0.00 | 0.00 | 0.00 | 82 | 1016.2 |
| 20260506070331 | 14 | 161 | 6.4 | 9.7 | 0.00 | 0.00 | 0.00 | 82 | 1016.2 |
| 20260506062101 | 15 | 118 | 6.4 | 9.7 | 0.00 | 0.00 | 0.00 | 80 | 1015.9 |
| 20260506061402 | 15 | 96 | 1.6 | 4.8 | 0.00 | 0.00 | 0.00 | 79 | 1015.7 |
| 20260506060601 | 15 | 106 | 1.6 | 4.8 | 0.00 | 0.00 | 0.00 | 79 | 1015.7 |